Regional Weather Roundup
Issued by NWS New Orleans/Baton Rouge, LA

Home | Current Version | Previous Version | Graphics & Text | Print | Product List | Glossary On
Versions: 1 2 3 4 5 6 7 8 9 10 11 12 13 14 15 16 17 18 19 20 21 22 23 24 25 26 27 28 29 30 31 32 33 34 35 36 37 38 39 40 41 42 43 44 45 46 47 48 49 50
111
ASUS44 KLIX 210401
RWRLIX
NEW ORLEANS REGIONAL WEATHER ROUNDUP
NATIONAL WEATHER SERVICE NEW ORLEANS LA
1100 PM CDT WED AUG 20 2014

NOTE: "FAIR" INDICATES FEW OR NO CLOUDS BELOW 12,000 FEET WITH NO
      SIGNIFICANT WEATHER AND/OR OBSTRUCTIONS TO VISIBILITY.
      SKY/WX - SKY CONDITION AND SIGNIFICANT WEATHER.
      TMP - AIR TEMPERATURE.     DP    - DEWPOINT TEMPERATURE.
      RH  - RELATIVE HUMIDITY.   PRES  - PRESSURE.
      HI  - HEAT INDEX.          WCI   - WIND CHILL INDEX.

*  THESE STATIONS ARE NOT NWS OR FAA STATIONS AND ARE NOT UNDER
   NWS QUALITY CONTROL.

LAZ038-040-048-061>063-065>067-069-210500-
SOUTHEAST LOUISIANA

CITY           SKY/WX    TMP DP  RH WIND       PRES   REMARKS
N.O. AUDUBON   NOT AVBL
N.O. INTL ARPT PTCLDY    79  71  76 CALM      30.09R
N.O. LAKEFRONT CLEAR     82  73  74 SW5       30.09S
N.O. DOWNTOWN*   N/A     82  70  65 CALM      30.10R
SLIDELL        PTCLDY    78  74  87 CALM      30.09R
BATON ROUGE    PTCLDY    76  73  91 E5        30.07R
BOOTHVILLE     CLEAR     84  76  76 S6        30.11R
BELLE CHASSE   MOCLDY    77  72  84 CALM      30.09R
BOGALUSA*        N/A     78  74  87 CALM      30.10S
GALLIANO*      NOT AVBL
NEW ROADS*       N/A     74  74  97 CALM      30.06S
GONZALES*        N/A     75  75  99 CALM      30.08R
HAMMOND*       NOT AVBL
HOUMA*         CLOUDY    76  72  88 CALM      30.09S
PORT FOURCHON* CLEAR     86  75  70 S6        30.11R HX  95

$$

MSZ070-080>082-210500-
SOUTHERN MISSISSIPPI

CITY           SKY/WX    TMP DP  RH WIND       PRES   REMARKS
MCCOMB         PTCLDY    77  70  79 CALM      30.10R
GULFPORT       CLEAR     83  76  79 CALM      30.09S
BILOXI         PTCLDY    84  77  79 W6        30.09F
PASCAGOULA     CLEAR     77  75  93 CALM      30.09F

$$

COASTAL OBSERVATIONS
LAKE AND NEARSHORE STATIONS

STATION/POSITION TIME  TEMP    WIND        PRES    WAVE
                       AIR SEA DIR/SP/G            HT/PER
                 (UTC) (F)     (DEG/KT/KT) (MB)    (FT/S)
PASCAGOULA       0300   86     230/ 10/ 12 1018.9
WAVELAND YACHT   0300   84     300/  1/  3 1018.4
GRAND ISLE       0300   85 89  200/  4/  5 1019.7
SOUTHWEST PASS   0300   85 89  200/  2/  4 1019.8
NEW CANAL        0300   82 84  220/  1/  2 1019.2
SHELL BEACH      0300   83 82  270/  5/  6 1018.9

OFFSHORE STATIONS

STATION/POSITION TIME  TEMP    WIND        PRES    WAVE
                       AIR SEA DIR/SP/G            HT/PER
                 (UTC) (F)     (DEG/KT/KT) (MB)    (FT/S)
64 S DAUPHIN ISL 0310   86 88  210/  6/  8 1019.9

$$




USA.gov is the U.S. government's official web portal to all federal, state and local government web resources and services.